This is the latest recevied weather packets stored in our database for station/object KB3GVC-13. If no packets are shown the sender has not sent any weather packets the latest 10 day(s).
| Time | Temp. | Humidity | Pressure | Rain* | Wind** | Luminosity | Snow |
|---|---|---|---|---|---|---|---|
| 1777994564 | 24.44° C | 48% | 1012.8 hPa | 0 mm | - | - | - |
| 1777994264 | 24.44° C | 47% | 1012.8 hPa | 0 mm | - | - | - |
| 1777993961 | 24.44° C | 47% | 1012.9 hPa | 0 mm | - | - | - |
| 1777993659 | 23.89° C | 49% | 1012.6 hPa | 0 mm | - | - | - |
| 1777993356 | 23.89° C | 48% | 1012.7 hPa | 0 mm | - | - | - |
| 1777993056 | 24.44° C | 49% | 1012.8 hPa | 0 mm | - | - | - |
| 1777992754 | 23.89° C | 48% | 1013 hPa | 0 mm | - | - | - |
| 1777992451 | 23.89° C | 48% | 1012.9 hPa | 0 mm | - | - | - |
| 1777992150 | 23.89° C | 49% | 1012.9 hPa | 0 mm | - | - | - |
| 1777991846 | 23.33° C | 49% | 1012.7 hPa | 0 mm | - | - | - |
| 1777991544 | 22.78° C | 49% | 1012.8 hPa | 0 mm | - | - | - |
| 1777991241 | 23.33° C | 49% | 1013 hPa | 0 mm | - | - | - |
| 1777990938 | 22.78° C | 49% | 1012.9 hPa | 0 mm | - | - | - |
| 1777990636 | 22.78° C | 50% | 1012.8 hPa | 0 mm | - | - | - |
| 1777990333 | 22.22° C | 51% | 1013.1 hPa | 0 mm | - | - | - |
| 1777990028 | 22.22° C | 49% | 1013 hPa | 0 mm | - | - | - |
| 1777989726 | 21.67° C | 51% | 1013.1 hPa | 0 mm | - | - | - |
| 1777989422 | 21.67° C | 51% | 1013.1 hPa | 0 mm | - | - | - |
| 1777989118 | 21.67° C | 51% | 1013.2 hPa | 0 mm | - | - | - |
| 1777988814 | 21.67° C | 52% | 1013.1 hPa | 0 mm | - | - | - |
| 1777988512 | 21.11° C | 53% | 1013.1 hPa | 0 mm | - | - | - |
| 1777988209 | 21.11° C | 52% | 1013.3 hPa | 0 mm | - | - | - |
| 1777987905 | 21.11° C | 53% | 1013.4 hPa | 0 mm | - | - | - |
| 1777987601 | 21.11° C | 54% | 1013.4 hPa | 0 mm | - | - | - |
| 1777987299 | 20.56° C | 54% | 1013.2 hPa | 0 mm | - | - | - |
* Rain latest hour (hover to see other rain measurements)
** Current wind speed in m/s (hover to see current wind gust speed)